TimeEDT,TemperatureF,Dew PointF,Humidity,Sea Level PressureIn,VisibilityMPH,Wind Direction,Wind SpeedMPH,Gust SpeedMPH,PrecipitationIn,Events,Conditions,WindDirDegrees,DateUTC
12:40 AM,60.8,59.0,94,30.01,0.1,Calm,Calm,-,N/A,Fog,Fog,0,2012-10-05 04:40:00
12:53 AM,60.1,59.0,96,30.05,0.1,South,3.5,-,N/A,Fog,Fog,180,2012-10-05 04:53:00
1:17 AM,60.8,59.0,94,30.01,0.1,Calm,Calm,-,N/A,Fog,Fog,0,2012-10-05 05:17:00
1:53 AM,60.1,59.0,96,30.05,0.1,Calm,Calm,-,0.01,Fog,Fog,0,2012-10-05 05:53:00
2:53 AM,60.1,59.0,96,30.03,0.1,SW,3.5,-,N/A,Fog,Fog,230,2012-10-05 06:53:00
3:53 AM,59.0,59.0,100,30.03,0.2,SSW,3.5,-,N/A,Fog,Fog,200,2012-10-05 07:53:00
4:53 AM,59.0,57.9,96,30.03,0.2,Calm,Calm,-,N/A,Fog,Fog,0,2012-10-05 08:53:00
5:14 AM,57.2,57.2,100,29.99,0.1,Calm,Calm,-,N/A,Fog,Fog,0,2012-10-05 09:14:00
5:39 AM,57.2,57.2,100,29.99,0.1,SSW,3.5,-,N/A,Fog,Fog,200,2012-10-05 09:39:00
5:53 AM,57.9,57.0,97,30.03,0.1,Calm,Calm,-,N/A,Fog,Fog,0,2012-10-05 09:53:00
6:53 AM,57.9,57.0,97,30.04,0.2,Calm,Calm,-,N/A,Fog,Fog,0,2012-10-05 10:53:00
7:53 AM,57.9,57.0,97,30.04,0.2,Calm,Calm,-,N/A,,Overcast,0,2012-10-05 11:53:00
8:30 AM,57.2,57.2,100,30.00,1.2,Calm,Calm,-,N/A,,Overcast,0,2012-10-05 12:30:00
8:35 AM,57.2,57.2,100,30.00,3.0,Calm,Calm,-,N/A,,Overcast,0,2012-10-05 12:35:00
8:53 AM,57.9,57.0,97,30.04,5.0,Calm,Calm,-,N/A,,Mostly Cloudy,0,2012-10-05 12:53:00
9:34 AM,59.0,57.2,94,30.00,9.0,South,3.5,-,N/A,,Mostly Cloudy,190,2012-10-05 13:34:00
9:53 AM,61.0,57.9,90,30.04,9.0,Calm,Calm,-,N/A,,Scattered Clouds,0,2012-10-05 13:53:00
10:53 AM,66.0,57.9,75,30.03,10.0,Calm,Calm,-,N/A,,Partly Cloudy,0,2012-10-05 14:53:00
11:53 AM,70.0,57.9,65,30.02,10.0,NW,3.5,-,N/A,,Partly Cloudy,320,2012-10-05 15:53:00
12:53 PM,71.6,57.2,60,29.96,10.0,Calm,Calm,-,N/A,,Partly Cloudy,0,2012-10-05 16:53:00
1:53 PM,75.0,50.0,41,29.97,10.0,Variable,3.5,-,N/A,,Partly Cloudy,0,2012-10-05 17:53:00
2:53 PM,77.0,50.0,39,29.95,10.0,West,5.8,-,N/A,,Partly Cloudy,270,2012-10-05 18:53:00
3:53 PM,75.9,51.1,42,29.93,10.0,SSW,9.2,-,N/A,,Clear,200,2012-10-05 19:53:00
4:53 PM,75.9,51.1,42,29.93,10.0,SSW,4.6,-,N/A,,Clear,200,2012-10-05 20:53:00
5:53 PM,73.9,54.0,50,29.93,10.0,South,4.6,-,N/A,,Clear,180,2012-10-05 21:53:00
6:53 PM,70.0,55.9,61,29.94,10.0,South,6.9,-,N/A,,Clear,180,2012-10-05 22:53:00
7:53 PM,66.9,57.0,70,29.94,10.0,South,3.5,-,N/A,,Clear,180,2012-10-05 23:53:00
8:53 PM,66.0,57.0,73,29.94,10.0,South,4.6,-,N/A,,Clear,190,2012-10-06 00:53:00
9:53 PM,64.0,57.0,78,29.94,10.0,South,3.5,-,N/A,,Clear,190,2012-10-06 01:53:00
10:53 PM,63.0,57.0,81,29.93,10.0,Calm,Calm,-,N/A,,Clear,0,2012-10-06 02:53:00
11:53 PM,61.0,55.9,83,29.92,10.0,Calm,Calm,-,N/A,,Clear,0,2012-10-06 03:53:00